| time (UTC) | temp C | wind direction | speed KPH | gust KPH | rain 1hr cm | rain 24hr cm | rain mn cm | humidity % | barometer mb |
| 20260505062623 | 22 | 113 | 0.0 | 11.3 | 0.00 | 0.00 | 0.00 | 39 | 1011.1 |
| 20260505061625 | 22 | 158 | 1.6 | 11.3 | 0.00 | 0.00 | 0.00 | 39 | 1011.2 |
| 20260505060624 | 22 | 47 | 1.6 | 11.3 | 0.00 | 0.00 | 0.00 | 39 | 1011.3 |
| 20260505055624 | 22 | 46 | 0.0 | 11.3 | 0.00 | 0.00 | 0.00 | 38 | 1011.2 |
| 20260505054624 | 21 | 293 | 1.6 | 11.3 | 0.00 | 0.00 | 0.00 | 37 | 1011.4 |
| 20260505053625 | 21 | 293 | 1.6 | 11.3 | 0.00 | 0.00 | 0.00 | 35 | 1011.6 |
| 20260505052625 | 22 | 324 | 0.0 | 11.3 | 0.00 | 0.00 | 0.00 | 33 | 1011.7 |
| 20260505051624 | 22 | 61 | 1.6 | 11.3 | 0.00 | 0.00 | 0.00 | 29 | 1011.7 |
| 20260505050624 | 21 | 158 | 1.6 | 11.3 | 0.00 | 0.00 | 0.00 | 28 | 1011.5 |
| 20260505041624 | 21 | 127 | 1.6 | 11.3 | 0.00 | 0.00 | 0.00 | 31 | 1012.0 |
| 20260505040624 | 21 | 332 | 3.2 | 11.3 | 0.00 | 0.00 | 0.00 | 31 | 1012.1 |
| 20260505035625 | 21 | 25 | 3.2 | 11.3 | 0.00 | 0.00 | 0.00 | 32 | 1012.1 |
| 20260505034625 | 20 | 90 | 1.6 | 11.3 | 0.00 | 0.00 | 0.00 | 37 | 1012.4 |
| 20260505033624 | 19 | 203 | 1.6 | 11.3 | 0.00 | 0.00 | 0.00 | 38 | 1012.6 |
| 20260505032624 | 20 | 78 | 0.0 | 11.3 | 0.00 | 0.00 | 0.00 | 34 | 1012.7 |
| 20260505031624 | 18 | 156 | 1.6 | 11.3 | 0.00 | 0.00 | 0.00 | 38 | 1012.9 |
| 20260505030625 | 19 | 113 | 0.0 | 11.3 | 0.00 | 0.00 | 0.00 | 40 | 1012.9 |
| 20260505025625 | 19 | 0 | 1.6 | 11.3 | 0.00 | 0.00 | 0.00 | 41 | 1013.4 |
| 20260505024624 | 18 | 270 | 1.6 | 11.3 | 0.00 | 0.00 | 0.00 | 46 | 1013.4 |
| 20260505023624 | 18 | 88 | 1.6 | 11.3 | 0.00 | 0.00 | 0.00 | 43 | 1013.7 |
| 20260505022624 | 17 | 132 | 0.0 | 11.3 | 0.00 | 0.00 | 0.00 | 54 | 1013.8 |
| 20260505021623 | 17 | 113 | 0.0 | 11.3 | 0.00 | 0.00 | 0.00 | 59 | 1013.7 |
| 20260505020625 | 17 | 154 | 3.2 | 11.3 | 0.00 | 0.00 | 0.00 | 60 | 1013.8 |
| 20260505015625 | 17 | 158 | 1.6 | 9.7 | 0.00 | 0.00 | 0.00 | 62 | 1013.8 |
| 20260505014624 | 17 | 64 | 1.6 | 9.7 | 0.00 | 0.00 | 0.00 | 58 | 1013.9 |
| 20260505013624 | 17 | 109 | 1.6 | 9.7 | 0.00 | 0.00 | 0.00 | 60 | 1013.7 |
| 20260505012623 | 17 | 98 | 1.6 | 9.7 | 0.00 | 0.00 | 0.00 | 62 | 1013.9 |
| 20260505011625 | 16 | 103 | 1.6 | 9.7 | 0.00 | 0.00 | 0.00 | 62 | 1013.9 |
| 20260505010625 | 16 | 113 | 1.6 | 9.7 | 0.00 | 0.00 | 0.00 | 62 | 1013.9 |
| 20260505005624 | 16 | 113 | 0.0 | 9.7 | 0.00 | 0.00 | 0.00 | 65 | 1014.2 |
| 20260505004624 | 16 | 45 | 1.6 | 9.7 | 0.00 | 0.00 | 0.00 | 67 | 1014.0 |
| 20260505003624 | 16 | 10 | 0.0 | 9.7 | 0.00 | 0.00 | 0.00 | 68 | 1013.9 |
| 20260505002625 | 15 | 108 | 1.6 | 9.7 | 0.00 | 0.00 | 0.00 | 68 | 1013.6 |
| 20260505001625 | 15 | 270 | 0.0 | 9.7 | 0.00 | 0.00 | 0.00 | 69 | 1013.8 |
| 20260505000624 | 15 | 143 | 1.6 | 6.4 | 0.00 | 0.00 | 0.00 | 67 | 1013.6 |
| 20260504235624 | 15 | 135 | 3.2 | 6.4 | 0.00 | 0.00 | 0.00 | 66 | 1013.5 |
| 20260504234623 | 15 | 157 | 1.6 | 6.4 | 0.00 | 0.00 | 0.00 | 67 | 1013.7 |
| 20260504233625 | 15 | 135 | 0.0 | 6.4 | 0.00 | 0.00 | 0.00 | 68 | 1013.6 |
| 20260504232624 | 15 | 315 | 1.6 | 6.4 | 0.00 | 0.00 | 0.00 | 63 | 1013.9 |
| 20260504231624 | 14 | 23 | 1.6 | 6.4 | 0.00 | 0.00 | 0.00 | 63 | 1013.8 |
| 20260504230624 | 13 | 293 | 1.6 | 6.4 | 0.00 | 0.00 | 0.00 | 69 | 1013.9 |
| 20260504225625 | 12 | 135 | 0.0 | 3.2 | 0.00 | 0.00 | 0.00 | 70 | 1013.8 |
| 20260504224625 | 12 | 135 | 0.0 | 3.2 | 0.00 | 0.00 | 0.00 | 74 | 1013.5 |
| 20260504223624 | 12 | 135 | 0.0 | 3.2 | 0.00 | 0.00 | 0.00 | 77 | 1013.4 |
| 20260504222624 | 11 | 135 | 0.0 | 3.2 | 0.00 | 0.00 | 0.00 | 82 | 1013.3 |
| 20260504221623 | 11 | 135 | 0.0 | 3.2 | 0.00 | 0.00 | 0.00 | 89 | 1013.5 |
| 20260504220625 | 10 | 135 | 0.0 | 3.2 | 0.00 | 0.00 | 0.00 | 92 | 1013.4 |
| 20260504215625 | 10 | 135 | 0.0 | 3.2 | 0.00 | 0.00 | 0.00 | 95 | 1013.2 |
| 20260504214624 | 10 | 135 | 0.0 | 3.2 | 0.00 | 0.00 | 0.00 | 96 | 1013.1 |
| 20260504213624 | 9 | 135 | 0.0 | 3.2 | 0.00 | 0.00 | 0.00 | 96 | 1013.2 |
| 20260504212625 | 8 | 135 | 0.0 | 3.2 | 0.00 | 0.00 | 0.00 | 96 | 1013.1 |
| 20260504211624 | 8 | 135 | 0.0 | 3.2 | 0.00 | 0.00 | 0.00 | 97 | 1012.9 |
| 20260504210624 | 7 | 158 | 0.0 | 3.2 | 0.00 | 0.00 | 0.00 | 97 | 1012.6 |
| 20260504205624 | 7 | 158 | 0.0 | 3.2 | 0.00 | 0.00 | 0.00 | 97 | 1012.4 |
| 20260504204623 | 7 | 158 | 0.0 | 3.2 | 0.00 | 0.00 | 0.00 | 97 | 1012.4 |
| 20260504203625 | 7 | 158 | 0.0 | 3.2 | 0.00 | 0.00 | 0.00 | 97 | 1012.4 |
| 20260504202625 | 7 | 158 | 0.0 | 3.2 | 0.00 | 0.00 | 0.00 | 97 | 1011.9 |
| 20260504201624 | 7 | 248 | 0.0 | 3.2 | 0.00 | 0.00 | 0.00 | 96 | 1011.9 |
| 20260504200623 | 7 | 248 | 0.0 | 3.2 | 0.00 | 0.00 | 0.00 | 96 | 1011.7 |
| 20260504195625 | 7 | 248 | 0.0 | 3.2 | 0.00 | 0.00 | 0.00 | 96 | 1011.7 |
| 20260504194625 | 7 | 248 | 0.0 | 3.2 | 0.00 | 0.00 | 0.00 | 96 | 1011.5 |
| 20260504193624 | 7 | 248 | 0.0 | 3.2 | 0.00 | 0.00 | 0.00 | 95 | 1011.2 |
| 20260504192624 | 7 | 248 | 0.0 | 3.2 | 0.00 | 0.00 | 0.00 | 95 | 1010.8 |
| 20260504191623 | 8 | 248 | 0.0 | 3.2 | 0.00 | 0.00 | 0.00 | 95 | 1010.9 |
| 20260504190623 | 8 | 248 | 0.0 | 3.2 | 0.00 | 0.00 | 0.00 | 94 | 1010.8 |
| 20260504185625 | 8 | 248 | 0.0 | 3.2 | 0.00 | 0.00 | 0.00 | 94 | 1010.8 |
| 20260504184624 | 8 | 248 | 0.0 | 3.2 | 0.00 | 0.00 | 0.00 | 94 | 1010.8 |
| 20260504183624 | 8 | 248 | 0.0 | 3.2 | 0.00 | 0.00 | 0.00 | 93 | 1010.6 |
| 20260504182624 | 8 | 248 | 0.0 | 3.2 | 0.00 | 0.00 | 0.00 | 92 | 1010.8 |
| 20260504181623 | 8 | 248 | 0.0 | 3.2 | 0.00 | 0.00 | 0.00 | 92 | 1010.5 |
| 20260504180625 | 9 | 248 | 0.0 | 3.2 | 0.00 | 0.00 | 0.00 | 91 | 1010.6 |
| 20260504175624 | 9 | 248 | 0.0 | 3.2 | 0.00 | 0.00 | 0.00 | 91 | 1010.4 |
| 20260504174624 | 9 | 248 | 0.0 | 3.2 | 0.00 | 0.00 | 0.00 | 91 | 1010.2 |
| 20260504173623 | 9 | 293 | 0.0 | 0.0 | 0.00 | 0.00 | 0.00 | 91 | 1010.2 |
| 20260504172625 | 9 | 293 | 0.0 | 0.0 | 0.00 | 0.00 | 0.00 | 90 | 1010.0 |
| 20260504171624 | 10 | 293 | 0.0 | 0.0 | 0.00 | 0.00 | 0.00 | 90 | 1010.0 |
| 20260504170624 | 10 | 293 | 0.0 | 0.0 | 0.00 | 0.00 | 0.00 | 88 | 1009.9 |
| 20260504150623 | 12 | 45 | 1.6 | 0.0 | 0.00 | 0.15 | 0.00 | 80 | 1009.5 |
| 20260504140624 | 12 | 338 | 0.0 | 38.6 | 0.00 | 0.15 | 0.15 | 78 | 1009.3 |
| 20260504130624 | 13 | 47 | 1.6 | 38.6 | 0.00 | 1.32 | 0.15 | 77 | 1008.6 |
| 20260504110623 | 14 | 148 | 1.6 | 38.6 | 0.00 | 1.88 | 0.15 | 78 | 1006.8 |
| 20260504081624 | 16 | 309 | 3.2 | 38.6 | 0.00 | 2.44 | 0.15 | 67 | 1002.9 |
| 20260504080624 | 17 | 127 | 0.0 | 38.6 | 0.00 | 2.46 | 0.15 | 68 | 1002.6 |